GW0258 Weather Reports


time (UTC)temp
C
wind
direction
speed
KPH
gust
KPH
rain 1hr
cm
rain 24hr
cm
rain mn
cm
humidity
%
barometer
mb
20260506044609 11 267 3.2 20.9 0.00 0.00 0.30 56 882.5
20260506044108 12 293 4.8 20.9 0.00 0.00 0.30 56 882.2
20260506043608 12 274 6.4 20.9 0.00 0.00 0.30 55 882.7
20260506042035 12 294 4.8 20.9 0.00 0.00 0.30 55 882.5
20260506041535 12 312 4.8 20.9 0.00 0.00 0.30 55 882.2
20260506041035 12 293 6.4 20.9 0.00 0.00 0.30 55 882.2
20260506040535 12 291 1.6 20.9 0.00 0.00 0.30 54 882.0
20260506040034 12 334 0.0 20.9 0.00 0.00 0.30 54 882.0
20260506035534 12 0 0.0 20.9 0.00 0.00 0.30 54 882.0
20260506035033 12 0 0.0 20.9 0.00 0.00 0.30 53 882.1
20260506034532 12 346 0.0 20.9 0.00 0.00 0.30 52 882.1
20260506034031 12 321 4.8 20.9 0.00 0.00 0.30 52 881.6
20260506033014 12 315 6.4 20.9 0.00 0.00 0.30 51 881.6
20260506031958 13 323 9.7 20.9 0.00 0.00 0.30 50 881.6
20260506031458 13 340 6.4 19.3 0.00 0.00 0.30 50 881.5
20260506030957 13 303 9.7 20.9 0.00 0.00 0.30 50 881.2
20260506030456 13 315 8.0 20.9 0.00 0.00 0.30 50 881.2
20260506025955 13 307 6.4 19.3 0.00 0.00 0.30 49 881.2
20260506025453 13 327 8.0 19.3 0.00 0.00 0.30 49 881.1
20260506024952 13 354 9.7 19.3 0.00 0.00 0.30 48 881.4
20260506023935 13 321 6.4 17.7 0.00 0.00 0.30 47 880.9
20260506022918 13 299 4.8 19.3 0.00 0.00 0.30 45 880.8
20260506022416 14 281 6.4 19.3 0.00 0.00 0.30 44 880.9
20260506021915 14 295 6.4 22.5 0.00 0.00 0.30 43 880.8
20260506021413 14 315 8.0 22.5 0.00 0.00 0.30 43 880.4
20260506020356 14 310 6.4 19.3 0.00 0.00 0.30 42 880.0
20260506015855 14 291 9.7 25.7 0.00 0.00 0.30 42 880.1
20260506015354 15 277 6.4 30.6 0.00 0.00 0.30 41 880.2
20260506014852 15 291 12.9 30.6 0.00 0.00 0.30 41 880.2
20260506014351 15 294 14.5 29.0 0.00 0.00 0.30 41 880.0
20260506013334 15 0 8.0 32.2 0.00 0.00 0.30 39 880.1
20260506012833 15 317 14.5 32.2 0.00 0.00 0.30 37 879.9
20260506012333 16 308 14.5 30.6 0.00 0.00 0.30 37 879.8
20260506011832 16 248 11.3 29.0 0.00 0.00 0.30 34 879.9
20260506011332 16 328 6.4 25.7 0.00 0.00 0.30 33 879.8
20260506010314 16 343 14.5 33.8 0.00 0.00 0.30 33 879.7
20260506005813 16 312 11.3 32.2 0.00 0.00 0.30 34 879.3
20260506005312 16 323 11.3 32.2 0.00 0.00 0.30 34 879.6
20260506004811 17 306 9.7 33.8 0.00 0.00 0.30 32 879.4
20260506004310 17 328 14.5 33.8 0.00 0.00 0.30 32 879.7
20260506003254 17 330 16.1 30.6 0.00 0.00 0.30 33 879.3
20260506002753 17 325 9.7 29.0 0.00 0.00 0.30 33 879.3
20260506002251 17 297 12.9 29.0 0.00 0.00 0.30 33 879.1
20260506001750 17 287 12.9 29.0 0.00 0.00 0.30 34 879.5
20260506001249 17 335 14.5 32.2 0.00 0.00 0.30 34 879.0
20260506000233 18 266 11.3 30.6 0.00 0.00 0.30 33 879.5
20260505235732 18 274 12.9 33.8 0.00 0.00 0.30 34 879.3
20260505235231 18 306 8.0 33.8 0.00 0.00 0.30 33 879.2
20260505234731 18 297 9.7 30.6 0.00 0.00 0.30 33 879.3
20260505234230 18 304 12.9 25.7 0.00 0.00 0.30 32 878.8
20260505233730 18 292 12.9 29.0 0.00 0.00 0.30 33 879.5
20260505233228 18 330 14.5 29.0 0.00 0.00 0.30 32 879.2
20260505232727 18 317 14.5 25.7 0.00 0.00 0.30 32 878.8
20260505231711 18 280 11.3 33.8 0.00 0.00 0.30 32 879.1
20260505231210 18 321 14.5 32.2 0.00 0.00 0.30 33 879.0
20260505230709 18 281 14.5 32.2 0.00 0.00 0.30 34 878.9
20260505225652 18 319 9.7 37.0 0.00 0.00 0.30 35 879.0
20260505225151 18 307 12.9 37.0 0.00 0.00 0.30 34 879.2
20260505224650 19 340 9.7 29.0 0.00 0.00 0.30 33 879.0
20260505224149 18 283 9.7 29.0 0.00 0.00 0.30 34 879.2
20260505223649 19 317 12.9 29.0 0.00 0.00 0.30 32 879.1
20260505223147 19 353 11.3 24.1 0.00 0.00 0.30 34 879.3
20260505222646 19 300 11.3 25.7 0.00 0.00 0.30 34 879.3
20260505222145 18 276 14.5 30.6 0.00 0.00 0.30 35 879.5
20260505221645 18 282 16.1 30.6 0.00 0.00 0.30 34 878.9
20260505221143 18 263 9.7 25.7 0.00 0.00 0.30 35 879.5
20260505220643 18 274 12.9 30.6 0.00 0.00 0.30 37 879.5
20260505220141 17 256 14.5 30.6 0.00 0.00 0.30 38 879.6
20260505215640 17 288 8.0 25.7 0.00 0.00 0.30 35 879.4
20260505214633 17 237 14.5 25.7 0.00 0.00 0.30 35 879.5
20260505213617 17 251 14.5 29.0 0.00 0.00 0.30 36 879.6
20260505213116 17 288 9.7 25.7 0.00 0.00 0.30 36 879.4
20260505212616 18 216 6.4 30.6 0.00 0.00 0.30 36 879.7
20260505212114 18 292 16.1 37.0 0.00 0.00 0.30 35 879.7
20260505211613 18 274 12.9 24.1 0.00 0.00 0.30 35 880.0
20260505211113 18 261 11.3 25.7 0.00 0.00 0.30 36 879.7
20260505210612 17 277 16.1 30.6 0.00 0.00 0.30 36 879.7
20260505205040 18 253 11.3 35.4 0.00 0.00 0.30 42 880.1
20260505204538 18 290 12.9 24.1 0.00 0.00 0.30 39 880.0
20260505204038 18 148 8.0 29.0 0.00 0.00 0.30 42 880.1
20260505203537 18 275 11.3 45.1 0.00 0.00 0.30 42 880.0
20260505203036 18 284 14.5 45.1 0.00 0.00 0.30 40 879.7
20260505202535 19 264 8.0 22.5 0.00 0.00 0.30 35 880.0
20260505202034 19 335 3.2 19.3 0.00 0.00 0.30 41 880.1
20260505201533 18 276 8.0 20.9 0.00 0.00 0.30 41 880.0
20260505200516 18 233 12.9 32.2 0.00 0.00 0.30 41 879.8
20260505195500 18 280 12.9 32.2 0.00 0.00 0.30 43 880.0
20260505194959 18 278 14.5 25.7 0.00 0.00 0.30 42 880.1
20260505194458 18 312 9.7 20.9 0.00 0.00 0.30 43 880.2
20260505193957 18 241 6.4 22.5 0.00 0.00 0.30 45 880.3
20260505193456 18 272 9.7 22.5 0.00 0.00 0.30 45 880.0
20260505192956 18 265 8.0 22.5 0.00 0.00 0.30 43 880.2
20260505192455 18 283 8.0 17.7 0.00 0.00 0.30 43 880.3
20260505191438 18 242 6.4 32.2 0.00 0.00 0.30 46 880.3
20260505190937 17 278 14.5 32.2 0.00 0.00 0.30 49 880.3
20260505190436 17 281 8.0 24.1 0.00 0.00 0.30 48 880.5
20260505185935 16 280 14.5 24.1 0.00 0.00 0.30 52 880.6
20260505184915 16 273 16.1 29.0 0.00 0.00 0.30 52 881.0
20260505184414 16 292 8.0 30.6 0.00 0.00 0.30 53 880.8
20260505183358 15 277 9.7 24.1 0.00 0.00 0.30 58 881.2
20260505182857 15 296 6.4 17.7 0.00 0.00 0.30 62 881.0
20260505182356 15 322 4.8 17.7 0.00 0.00 0.30 63 881.0
20260505181855 15 300 9.7 17.7 0.00 0.00 0.30 62 881.2
20260505181354 15 311 8.0 17.7 0.00 0.00 0.30 64 881.1
20260505180853 15 307 6.4 17.7 0.00 0.00 0.30 65 881.3
20260505175837 15 215 1.6 17.7 0.00 0.00 0.30 68 881.0
20260505174821 15 294 9.7 17.7 0.00 0.00 0.30 66 881.2
20260505174320 16 286 4.8 17.7 0.00 0.00 0.30 65 881.1
20260505173819 16 309 6.4 17.7 0.00 0.00 0.30 67 881.3
20260505173318 16 317 1.6 17.7 0.00 0.00 0.30 69 881.4
20260505172817 15 341 4.8 17.7 0.00 0.00 0.30 73 881.1
20260505172316 15 299 3.2 17.7 0.00 0.00 0.30 69 881.1
20260505171816 15 336 6.4 17.7 0.00 0.00 0.30 73 880.9
20260505171315 15 352 4.8 17.7 0.00 0.00 0.30 70 881.1
20260505170814 14 257 1.6 17.7 0.00 0.00 0.30 71 881.1
20260505165758 14 321 8.0 20.9 0.00 0.00 0.30 71 881.0
20260505165256 15 262 6.4 17.7 0.00 0.00 0.30 68 881.3
20260505164755 14 295 4.8 20.9 0.00 0.00 0.30 71 881.1
20260505164254 14 256 3.2 20.9 0.00 0.00 0.30 72 881.3
20260505163754 14 297 9.7 19.3 0.00 0.00 0.30 71 881.1
20260505162737 14 317 6.4 19.3 0.00 0.00 0.30 75 880.9
20260505162236 13 306 1.6 19.3 0.00 0.00 0.30 78 881.2
20260505161735 13 306 0.0 19.3 0.00 0.00 0.30 83 881.0
20260505161234 13 348 1.6 19.3 0.00 0.00 0.30 83 881.1
20260505160734 13 332 1.6 19.3 0.00 0.00 0.30 83 881.2
20260505160233 13 356 3.2 19.3 0.00 0.00 0.30 83 881.3
20260505153215 12 312 1.6 19.3 0.00 0.00 0.30 84 881.3
20260505152714 12 298 0.0 19.3 0.00 0.00 0.30 83 881.3
20260505152214 12 288 1.6 19.3 0.00 0.00 0.30 81 881.0
20260505151713 12 292 3.2 19.3 0.00 0.00 0.30 81 881.1
20260505151213 12 257 1.6 19.3 0.00 0.00 0.30 81 881.1
20260505150712 12 256 0.0 19.3 0.00 0.00 0.30 81 880.9
20260505150210 12 237 1.6 19.3 0.00 0.00 0.30 82 881.2
20260505140203 11 187 0.0 19.3 0.00 0.00 0.30 88 880.8
20260505130155 10 108 6.4 20.9 0.13 0.00 0.30 90 880.2
20260505124638 10 137 6.4 17.7 0.13 0.00 0.30 90 880.0
20260505123106 10 121 3.2 19.3 0.10 0.00 0.28 91 880.2
20260505122605 10 65 6.4 24.1 0.10 0.00 0.28 91 880.2
20260505122105 10 107 8.0 24.1 0.10 0.00 0.28 90 880.2
20260505121604 10 139 4.8 24.1 0.13 0.00 0.28 90 880.1
20260505120548 10 135 11.3 22.5 0.00 0.00 0.15 87 880.4
20260505120047 10 76 6.4 17.7 0.00 0.00 0.15 89 879.7
20260505115547 10 119 9.7 20.9 0.00 0.00 0.15 89 879.7
20260505115046 10 127 9.7 25.7 0.00 0.00 0.15 91 879.5
20260505114546 10 111 11.3 25.7 0.00 0.00 0.15 91 879.4
20260505113530 10 111 12.9 25.7 0.00 0.00 0.15 91 879.4
20260505113029 10 138 8.0 30.6 0.00 0.00 0.15 91 879.8
20260505112529 10 128 8.0 30.6 0.00 0.00 0.15 91 879.9
20260505112028 10 131 11.3 22.5 0.00 0.00 0.15 90 880.4
20260505111528 10 173 8.0 22.5 0.00 0.00 0.15 90 880.3
20260505110511 10 141 9.7 22.5 0.00 0.00 0.15 90 880.4
20260505101948 10 113 14.5 30.6 0.03 0.00 0.15 87 880.3
20260505101447 10 124 12.9 25.7 0.05 0.00 0.15 86 880.8
20260505100946 10 153 11.3 24.1 0.03 0.00 0.13 85 880.9
20260505100445 10 155 12.9 22.5 0.03 0.00 0.13 84 881.4
20260505095944 10 155 12.9 22.5 0.03 0.00 0.13 84 880.9
20260505095443 10 150 12.9 22.5 0.03 0.00 0.13 83 881.1
20260505094943 10 112 8.0 22.5 0.08 0.00 0.13 85 881.1
20260505094443 10 137 9.7 20.9 0.08 0.00 0.13 85 881.2
20260505093943 10 131 9.7 20.9 0.10 0.00 0.13 84 881.3
20260505093441 10 139 4.8 20.9 0.08 0.00 0.10 85 881.7
20260505092940 10 92 4.8 20.9 0.08 0.00 0.10 86 881.8
20260505092439 10 290 0.0 20.9 0.08 0.00 0.10 89 882.1
20260505091938 10 222 3.2 20.9 0.10 0.00 0.10 91 881.9
20260505091437 10 215 1.6 20.9 0.10 0.00 0.10 92 882.3
20260505090936 10 242 0.0 20.9 0.08 0.00 0.08 92 882.2
20260505090436 10 299 1.6 20.9 0.08 0.00 0.08 92 882.2
20260505085935 10 136 1.6 20.9 0.08 0.00 0.08 92 882.6
20260505085434 10 289 3.2 20.9 0.08 0.00 0.08 92 882.5
20260505084933 10 274 3.2 20.9 0.03 0.00 0.03 91 882.6
20260505084433 10 297 6.4 20.9 0.03 0.00 0.03 91 882.9
20260505083932 11 108 3.2 20.9 0.03 0.00 0.03 91 882.8
20260505082915 11 284 8.0 19.3 0.00 0.00 0.00 90 883.1
20260505082414 11 267 8.0 19.3 0.00 0.00 0.00 90 883.3
20260505081913 11 307 8.0 17.7 0.00 0.00 0.00 89 882.9
20260505081412 11 258 3.2 17.7 0.00 0.00 0.00 88 883.2
20260505080911 11 269 4.8 17.7 0.00 0.00 0.00 87 883.0
20260505080410 11 292 3.2 17.7 0.00 0.00 0.00 86 883.4
20260505075354 12 36 1.6 17.7 0.00 0.00 0.00 83 883.5
20260505074854 12 262 4.8 17.7 0.00 0.00 0.00 81 883.3
20260505074353 12 270 6.4 17.7 0.00 0.00 0.00 79 883.4
20260505073852 12 287 8.0 17.7 0.00 0.00 0.00 78 883.3
20260505073351 12 279 3.2 17.7 0.00 0.00 0.00 77 883.4
20260505072850 12 287 6.4 22.5 0.00 0.00 0.00 76 883.3
20260505072350 12 273 3.2 22.5 0.00 0.00 0.00 76 883.2
20260505071849 12 292 8.0 20.9 0.00 0.00 0.00 75 883.3
20260505070832 12 271 6.4 20.9 0.00 0.00 0.00 75 883.3
20260505070331 12 290 6.4 20.9 0.00 0.00 0.00 76 883.2
20260505065831 12 286 3.2 20.9 0.00 0.00 0.00 76 883.1
20260505065330 12 299 4.8 20.9 0.00 0.00 0.00 76 883.1
20260505064829 12 276 3.2 20.9 0.00 0.00 0.00 76 883.3
20260505064328 12 310 6.4 20.9 0.00 0.00 0.00 76 883.4
20260505063828 12 305 6.4 20.9 0.00 0.00 0.00 75 883.2
20260505062812 12 284 8.0 20.9 0.00 0.00 0.00 74 883.5
20260505062311 13 307 8.0 20.9 0.00 0.00 0.00 74 883.4
20260505061810 13 298 9.7 20.9 0.00 0.00 0.00 73 883.0
20260505061309 13 278 9.7 20.9 0.00 0.00 0.00 73 883.1
20260505060808 13 286 6.4 19.3 0.00 0.00 0.00 73 883.1
20260505060307 13 292 6.4 19.3 0.00 0.00 0.00 73 883.3
20260505055806 13 287 6.4 19.3 0.00 0.00 0.00 74 883.4
20260505055306 13 289 8.0 19.3 0.00 0.00 0.00 74 883.4
20260505054806 13 289 8.0 19.3 0.00 0.00 0.00 73 883.4
20260505054305 13 298 4.8 19.3 0.00 0.00 0.00 73 883.4
20260505053804 13 296 6.4 19.3 0.00 0.00 0.00 73 883.4
20260505053303 13 289 8.0 17.7 0.00 0.00 0.00 72 883.5
20260505052802 13 310 8.0 17.7 0.00 0.00 0.00 72 883.7
20260505052301 13 307 6.4 20.9 0.00 0.00 0.00 70 883.5
20260505051800 13 310 3.2 20.9 0.00 0.00 0.00 69 883.5
20260505051259 13 305 4.8 20.9 0.00 0.00 0.00 66 883.8
20260505050758 13 311 3.2 20.9 0.00 0.00 0.00 64 883.6
20260505050257 13 319 3.2 20.9 0.00 0.00 0.00 61 883.8